| time (UTC) | temp F | wind direction | speed MPH | gust MPH | rain 1hr in | rain 24hr in | rain mn in | humidity % | barometer mb |
| 20260901005113 | 61 | 105 | 0.0 | 0.0 | 0.00 | 0.05 | 0.02 | 69 | 1019.6 |
| 20260901004113 | 62 | 105 | 0.0 | 0.0 | 0.00 | 0.05 | 0.02 | 69 | 1019.7 |
| 20260901003113 | 62 | 105 | 0.0 | 0.0 | 0.00 | 0.05 | 0.02 | 70 | 1019.7 |
| 20260901002113 | 63 | 105 | 2.0 | 3.0 | 0.00 | 0.05 | 0.02 | 69 | 1019.7 |
| 20260901001113 | 63 | 127 | 3.0 | 3.0 | 0.00 | 0.05 | 0.02 | 69 | 1019.7 |
| 20260901000113 | 63 | 173 | 3.0 | 3.0 | 0.00 | 0.05 | 0.02 | 69 | 1019.8 |
| 20260831235113 | 64 | 213 | 0.0 | 2.0 | 0.00 | 0.05 | 0.02 | 69 | 1019.7 |
| 20260831234113 | 64 | 213 | 0.0 | 0.0 | 0.00 | 0.05 | 0.02 | 69 | 1019.9 |
| 20260831233113 | 64 | 213 | 0.0 | 3.0 | 0.00 | 0.05 | 0.02 | 68 | 1019.9 |
| 20260831232113 | 64 | 213 | 0.0 | 0.0 | 0.02 | 0.05 | 0.02 | 68 | 1020.2 |
| 20260831231112 | 64 | 213 | 0.0 | 0.0 | 0.02 | 0.05 | 0.02 | 68 | 1020.2 |
| 20260831230113 | 64 | 214 | 1.0 | 5.0 | 0.02 | 0.05 | 0.02 | 68 | 1020.3 |
| 20260831225112 | 65 | 218 | 4.0 | 5.0 | 0.02 | 0.05 | 0.02 | 67 | 1020.5 |
| 20260831224112 | 65 | 202 | 4.0 | 6.0 | 0.03 | 0.05 | 0.02 | 66 | 1020.5 |
| 20260831223112 | 65 | 196 | 5.0 | 7.0 | 0.04 | 0.05 | 0.02 | 66 | 1020.6 |
| 20260831222112 | 66 | 256 | 1.0 | 6.0 | 0.03 | 0.03 | 0.01 | 65 | 1020.6 |
| 20260831221112 | 66 | 205 | 0.0 | 0.0 | 0.03 | 0.03 | 0.01 | 65 | 1020.7 |
| 20260831220112 | 66 | 306 | 1.0 | 2.0 | 0.03 | 0.03 | 0.01 | 65 | 1020.9 |
| 20260831215112 | 67 | 277 | 1.0 | 2.0 | 0.02 | 0.02 | 0.02 | 62 | 1020.7 |
| 20260831214112 | 67 | 273 | 4.0 | 9.0 | 0.02 | 0.02 | 0.02 | 61 | 1020.5 |
| 20260831213112 | 68 | 264 | 9.0 | 12.0 | 0.01 | 0.01 | 0.01 | 59 | 1020.6 |
| 20260831212112 | 69 | 286 | 12.0 | 16.0 | 0.00 | 0.00 | 0.00 | 56 | 1020.5 |
| 20260831211112 | 71 | 282 | 11.0 | 19.0 | 0.00 | 0.00 | 0.00 | 51 | 1020.4 |
| 20260831210112 | 72 | 263 | 7.0 | 10.0 | 0.00 | 0.00 | 0.00 | 49 | 1020.1 |
| 20260831205112 | 72 | 274 | 4.0 | 8.0 | 0.00 | 0.00 | 0.00 | 45 | 1019.3 |
| 20260831204112 | 71 | 311 | 5.0 | 7.0 | 0.00 | 0.00 | 0.00 | 44 | 1018.9 |
| 20260831203112 | 71 | 333 | 3.0 | 4.0 | 0.00 | 0.00 | 0.00 | 43 | 1018.5 |
| 20260831202112 | 72 | 351 | 2.0 | 4.0 | 0.00 | 0.00 | 0.00 | 44 | 1017.9 |
| 20260831201112 | 72 | 309 | 1.0 | 2.0 | 0.00 | 0.00 | 0.00 | 45 | 1017.8 |
| 20260831200112 | 72 | 309 | 0.0 | 2.0 | 0.00 | 0.00 | 0.00 | 44 | 1017.4 |
| 20260831195112 | 72 | 318 | 3.0 | 4.0 | 0.00 | 0.00 | 0.00 | 41 | 1017.1 |
| 20260831194112 | 71 | 313 | 4.0 | 6.0 | 0.00 | 0.00 | 0.00 | 43 | 1017.0 |
| 20260831193112 | 72 | 281 | 4.0 | 7.0 | 0.00 | 0.00 | 0.00 | 42 | 1016.9 |
| 20260831192112 | 72 | 294 | 4.0 | 7.0 | 0.00 | 0.00 | 0.00 | 43 | 1016.6 |
| 20260831191112 | 72 | 317 | 6.0 | 6.0 | 0.00 | 0.00 | 0.00 | 43 | 1016.3 |
| 20260831190112 | 73 | 317 | 1.0 | 4.0 | 0.00 | 0.00 | 0.00 | 43 | 1016.3 |
| 20260831185112 | 73 | 313 | 0.0 | 1.0 | 0.00 | 0.00 | 0.00 | 41 | 1016.4 |
| 20260831184112 | 74 | 313 | 1.0 | 1.0 | 0.00 | 0.00 | 0.00 | 41 | 1016.4 |
| 20260831183112 | 74 | 313 | 0.0 | 2.0 | 0.00 | 0.00 | 0.00 | 39 | 1016.1 |
| 20260831182112 | 75 | 313 | 2.0 | 2.0 | 0.00 | 0.00 | 0.00 | 39 | 1016.0 |
| 20260831181112 | 76 | 313 | 0.0 | 2.0 | 0.00 | 0.00 | 0.00 | 37 | 1016.0 |
| 20260831180112 | 76 | 313 | 1.0 | 2.0 | 0.00 | 0.00 | 0.00 | 36 | 1015.8 |
| 20260831175112 | 77 | 313 | 1.0 | 2.0 | 0.00 | 0.00 | 0.00 | 34 | 1015.6 |
| 20260831174112 | 78 | 313 | 0.0 | 3.0 | 0.00 | 0.00 | 0.00 | 33 | 1015.6 |
| 20260831173112 | 78 | 290 | 4.0 | 7.0 | 0.00 | 0.00 | 0.00 | 33 | 1015.7 |
| 20260831172112 | 79 | 284 | 3.0 | 5.0 | 0.00 | 0.00 | 0.00 | 32 | 1015.5 |
| 20260831171112 | 80 | 292 | 4.0 | 7.0 | 0.00 | 0.00 | 0.00 | 32 | 1015.4 |
| 20260831170111 | 81 | 279 | 4.0 | 6.0 | 0.00 | 0.00 | 0.00 | 31 | 1015.5 |
| 20260831165112 | 82 | 293 | 4.0 | 7.0 | 0.00 | 0.00 | 0.00 | 30 | 1015.6 |
| 20260831164112 | 82 | 253 | 7.0 | 13.0 | 0.00 | 0.00 | 0.00 | 28 | 1015.6 |
| 20260831163111 | 83 | 288 | 3.0 | 9.0 | 0.00 | 0.00 | 0.00 | 32 | 1015.8 |
| 20260831162111 | 82 | 253 | 5.0 | 8.0 | 0.00 | 0.00 | 0.00 | 34 | 1015.8 |
| 20260831161111 | 83 | 242 | 6.0 | 8.0 | 0.00 | 0.00 | 0.00 | 32 | 1015.8 |
| 20260831160111 | 83 | 242 | 5.0 | 7.0 | 0.00 | 0.00 | 0.00 | 31 | 1015.9 |
| 20260831155111 | 84 | 281 | 5.0 | 7.0 | 0.00 | 0.00 | 0.00 | 29 | 1016.2 |
| 20260831154111 | 85 | 239 | 8.0 | 12.0 | 0.00 | 0.00 | 0.00 | 29 | 1016.0 |
| 20260831153111 | 85 | 256 | 6.0 | 10.0 | 0.00 | 0.00 | 0.00 | 30 | 1016.0 |
| 20260831152112 | 85 | 261 | 7.0 | 14.0 | 0.00 | 0.00 | 0.00 | 29 | 1016.0 |
| 20260831151111 | 85 | 250 | 9.0 | 17.0 | 0.00 | 0.00 | 0.00 | 30 | 1016.2 |
| 20260831150111 | 85 | 274 | 10.0 | 18.0 | 0.00 | 0.00 | 0.00 | 28 | 1016.1 |
| 20260831145111 | 86 | 215 | 5.0 | 8.0 | 0.00 | 0.00 | 0.00 | 31 | 1016.3 |
| 20260831144111 | 86 | 213 | 5.0 | 7.0 | 0.00 | 0.00 | 0.00 | 32 | 1016.3 |
| 20260831143111 | 85 | 271 | 2.0 | 11.0 | 0.00 | 0.00 | 0.00 | 33 | 1016.3 |
| 20260831142111 | 85 | 258 | 9.0 | 12.0 | 0.00 | 0.00 | 0.00 | 32 | 1016.5 |
| 20260831141111 | 85 | 342 | 5.0 | 9.0 | 0.00 | 0.00 | 0.00 | 33 | 1016.4 |
| 20260831140111 | 85 | 347 | 5.0 | 9.0 | 0.00 | 0.00 | 0.00 | 34 | 1016.5 |
| 20260831135111 | 85 | 254 | 8.0 | 12.0 | 0.00 | 0.00 | 0.00 | 35 | 1016.7 |
| 20260831134111 | 84 | 288 | 9.0 | 14.0 | 0.00 | 0.00 | 0.00 | 35 | 1016.7 |
| 20260831133111 | 82 | 294 | 9.0 | 15.0 | 0.00 | 0.00 | 0.00 | 39 | 1016.9 |
| 20260831132111 | 81 | 15 | 4.0 | 10.0 | 0.00 | 0.00 | 0.00 | 40 | 1016.9 |
| 20260831131111 | 80 | 339 | 8.0 | 14.0 | 0.00 | 0.00 | 0.00 | 40 | 1017.1 |
| 20260831130111 | 80 | 306 | 9.0 | 14.0 | 0.00 | 0.00 | 0.00 | 39 | 1017.3 |
| 20260831125111 | 81 | 305 | 9.0 | 15.0 | 0.00 | 0.00 | 0.00 | 40 | 1017.2 |
| 20260831124111 | 80 | 311 | 11.0 | 14.0 | 0.00 | 0.00 | 0.00 | 42 | 1017.1 |
| 20260831123111 | 81 | 257 | 7.0 | 13.0 | 0.00 | 0.00 | 0.00 | 42 | 1017.4 |
| 20260831122111 | 82 | 313 | 11.0 | 19.0 | 0.00 | 0.00 | 0.00 | 41 | 1017.4 |
| 20260831121111 | 82 | 297 | 12.0 | 18.0 | 0.00 | 0.00 | 0.00 | 39 | 1017.3 |
| 20260831120111 | 83 | 333 | 6.0 | 15.0 | 0.00 | 0.00 | 0.00 | 39 | 1017.4 |
| 20260831115111 | 83 | 281 | 9.0 | 16.0 | 0.00 | 0.00 | 0.00 | 39 | 1017.4 |
| 20260831114111 | 83 | 263 | 11.0 | 18.0 | 0.00 | 0.00 | 0.00 | 38 | 1017.1 |
| 20260831113111 | 84 | 236 | 12.0 | 24.0 | 0.00 | 0.00 | 0.00 | 35 | 1017.1 |
| 20260831112111 | 82 | 281 | 9.0 | 15.0 | 0.00 | 0.00 | 0.00 | 40 | 1016.9 |
| 20260831111111 | 65 | 324 | 3.0 | 4.0 | 0.00 | 0.00 | 0.00 | 61 | 1016.7 |
| 20260831110111 | 82 | 254 | 13.0 | 17.0 | 0.00 | 0.00 | 0.00 | 43 | 1016.9 |
| 20260831105111 | 82 | 257 | 10.0 | 17.0 | 0.00 | 0.00 | 0.00 | 42 | 1016.9 |
| 20260831104111 | 83 | 265 | 13.0 | 24.0 | 0.00 | 0.00 | 0.00 | 40 | 1016.9 |
| 20260831103110 | 84 | 243 | 15.0 | 20.0 | 0.00 | 0.00 | 0.00 | 40 | 1016.8 |
| 20260831102111 | 84 | 225 | 11.0 | 21.0 | 0.00 | 0.00 | 0.00 | 40 | 1016.8 |
| 20260831101111 | 83 | 263 | 10.0 | 21.0 | 0.00 | 0.00 | 0.00 | 41 | 1016.9 |
| 20260831100110 | 82 | 257 | 12.0 | 17.0 | 0.00 | 0.00 | 0.00 | 41 | 1017.0 |
| 20260831095111 | 82 | 244 | 8.0 | 16.0 | 0.00 | 0.00 | 0.00 | 42 | 1017.1 |
| 20260831094110 | 80 | 289 | 9.0 | 15.0 | 0.00 | 0.00 | 0.00 | 43 | 1017.2 |
| 20260831093110 | 81 | 299 | 12.0 | 16.0 | 0.00 | 0.00 | 0.00 | 39 | 1017.3 |
| 20260831092110 | 81 | 281 | 10.0 | 18.0 | 0.00 | 0.00 | 0.00 | 40 | 1017.2 |
| 20260831091110 | 81 | 251 | 4.0 | 15.0 | 0.00 | 0.00 | 0.00 | 39 | 1017.2 |
| 20260831090110 | 80 | 235 | 11.0 | 16.0 | 0.00 | 0.00 | 0.00 | 41 | 1017.2 |
| 20260831085110 | 79 | 233 | 9.0 | 14.0 | 0.00 | 0.00 | 0.00 | 40 | 1017.2 |
| 20260831084110 | 78 | 254 | 9.0 | 15.0 | 0.00 | 0.00 | 0.00 | 42 | 1017.1 |
| 20260831083110 | 78 | 239 | 9.0 | 22.0 | 0.00 | 0.00 | 0.00 | 41 | 1017.0 |
| 20260831082110 | 79 | 242 | 8.0 | 10.0 | 0.00 | 0.00 | 0.00 | 42 | 1016.9 |
| 20260831081110 | 78 | 318 | 2.0 | 3.0 | 0.00 | 0.00 | 0.00 | 42 | 1016.0 |
| 20260831080110 | 78 | 250 | 2.0 | 4.0 | 0.00 | 0.00 | 0.00 | 43 | 1016.1 |
| 20260831075110 | 77 | 308 | 4.0 | 7.0 | 0.00 | 0.00 | 0.00 | 44 | 1016.4 |
| 20260831074110 | 76 | 294 | 1.0 | 8.0 | 0.00 | 0.00 | 0.00 | 47 | 1016.3 |
| 20260831073110 | 74 | 257 | 2.0 | 11.0 | 0.00 | 0.00 | 0.00 | 47 | 1016.2 |
| 20260831072110 | 74 | 218 | 8.0 | 11.0 | 0.00 | 0.00 | 0.00 | 48 | 1016.2 |
| 20260831071110 | 74 | 253 | 6.0 | 12.0 | 0.00 | 0.00 | 0.00 | 49 | 1016.2 |
| 20260831070110 | 73 | 254 | 7.0 | 12.0 | 0.00 | 0.00 | 0.00 | 49 | 1016.3 |
| 20260831065110 | 73 | 236 | 4.0 | 7.0 | 0.00 | 0.00 | 0.00 | 52 | 1016.4 |
| 20260831064110 | 71 | 252 | 3.0 | 5.0 | 0.00 | 0.00 | 0.00 | 55 | 1016.3 |
| 20260831063110 | 70 | 86 | 1.0 | 3.0 | 0.00 | 0.00 | 0.00 | 58 | 1015.9 |
| 20260831062110 | 69 | 52 | 1.0 | 3.0 | 0.00 | 0.00 | 0.00 | 60 | 1015.8 |
| 20260831061110 | 66 | 44 | 1.0 | 2.0 | 0.00 | 0.00 | 0.00 | 63 | 1016.0 |
| 20260831060110 | 65 | 5 | 0.0 | 0.0 | 0.00 | 0.00 | 0.00 | 65 | 1016.1 |
| 20260831055110 | 64 | 5 | 0.0 | 0.0 | 0.00 | 0.00 | 0.00 | 65 | 1015.9 |
| 20260831054110 | 63 | 5 | 0.0 | 0.0 | 0.00 | 0.00 | 0.00 | 65 | 1015.8 |
| 20260831053110 | 62 | 5 | 0.0 | 2.0 | 0.00 | 0.00 | 0.00 | 67 | 1015.7 |
| 20260831052110 | 61 | 311 | 0.0 | 0.0 | 0.00 | 0.00 | 0.00 | 70 | 1015.8 |
| 20260831051110 | 60 | 302 | 0.0 | 0.0 | 0.00 | 0.00 | 0.00 | 71 | 1015.8 |
| 20260831050110 | 60 | 302 | 0.0 | 0.0 | 0.00 | 0.00 | 0.00 | 71 | 1015.6 |
| 20260831045110 | 59 | 302 | 0.0 | 2.0 | 0.00 | 0.00 | 0.00 | 70 | 1015.7 |
| 20260831044110 | 59 | 302 | 1.0 | 2.0 | 0.00 | 0.00 | 0.00 | 70 | 1015.6 |
| 20260831043109 | 58 | 302 | 0.0 | 2.0 | 0.00 | 0.00 | 0.00 | 69 | 1015.7 |
| 20260831042109 | 58 | 301 | 3.0 | 6.0 | 0.00 | 0.00 | 0.00 | 69 | 1015.8 |
| 20260831041109 | 58 | 315 | 3.0 | 4.0 | 0.00 | 0.00 | 0.00 | 69 | 1015.6 |
| 20260831040110 | 58 | 315 | 1.0 | 2.0 | 0.00 | 0.00 | 0.00 | 68 | 1015.5 |
| 20260831035109 | 59 | 315 | 0.0 | 0.0 | 0.00 | 0.00 | 0.00 | 68 | 1015.4 |
| 20260831034109 | 59 | 315 | 0.0 | 0.0 | 0.00 | 0.00 | 0.00 | 68 | 1015.4 |
| 20260831033109 | 59 | 315 | 0.0 | 0.0 | 0.00 | 0.00 | 0.00 | 68 | 1015.4 |
| 20260831032109 | 59 | 315 | 0.0 | 2.0 | 0.00 | 0.00 | 0.00 | 68 | 1015.4 |
| 20260831031109 | 59 | 315 | 0.0 | 0.0 | 0.00 | 0.00 | 0.00 | 68 | 1015.4 |
| 20260831030109 | 60 | 315 | 0.0 | 0.0 | 0.00 | 0.00 | 0.00 | 67 | 1015.6 |
| 20260831025109 | 60 | 315 | 2.0 | 4.0 | 0.00 | 0.00 | 0.00 | 67 | 1015.6 |
| 20260831024109 | 60 | 315 | 4.0 | 4.0 | 0.00 | 0.00 | 0.00 | 67 | 1015.6 |
| 20260831023109 | 60 | 315 | 4.0 | 5.0 | 0.00 | 0.00 | 0.00 | 68 | 1015.6 |
| 20260831022109 | 60 | 313 | 3.0 | 3.0 | 0.00 | 0.00 | 0.00 | 68 | 1015.6 |
| 20260831021109 | 60 | 313 | 0.0 | 0.0 | 0.00 | 0.00 | 0.00 | 67 | 1015.6 |
| 20260831020109 | 60 | 313 | 0.0 | 0.0 | 0.00 | 0.00 | 0.00 | 67 | 1015.7 |
| 20260831015109 | 60 | 313 | 0.0 | 0.0 | 0.00 | 0.00 | 0.00 | 67 | 1015.7 |
| 20260831014109 | 61 | 313 | 0.0 | 0.0 | 0.00 | 0.00 | 0.00 | 67 | 1015.8 |
| 20260831013109 | 61 | 313 | 0.0 | 0.0 | 0.00 | 0.00 | 0.00 | 67 | 1015.8 |
| 20260831012109 | 61 | 323 | 0.0 | 0.0 | 0.00 | 0.00 | 0.00 | 67 | 1015.8 |
| 20260831011109 | 61 | 323 | 0.0 | 0.0 | 0.00 | 0.00 | 0.00 | 66 | 1015.8 |